EW7671 Weather Reports


time (UTC)temp
C
wind
direction
speed
KPH
gust
KPH
rain 1hr
cm
rain 24hr
cm
rain mn
cm
humidity
%
barometer
mb
20260505041515 5 221 0.0 0.0 0.00 0.00 0.00 1 1014.9
20260505040009 4 221 0.0 0.0 0.00 0.00 0.00 1 1015.0
20260505034505 4 221 0.0 0.0 0.00 0.00 0.00 1 1015.1
20260505033002 4 224 0.0 0.0 0.00 0.00 0.00 1 1015.1
20260505031557 4 224 0.0 0.0 0.00 0.00 0.00 1 1015.2
20260505030053 4 305 0.0 0.0 0.00 0.00 0.00 1 1015.1
20260505024548 4 305 0.0 0.0 0.00 0.00 0.00 1 1015.4
20260505023047 4 305 0.0 1.6 0.00 0.00 0.00 1 1015.5
20260505021539 5 305 0.0 0.0 0.00 0.00 0.00 1 1015.7
20260505020034 5 305 0.0 0.0 0.00 0.00 0.00 1 1015.8
20260505014530 5 305 0.0 1.6 0.00 0.00 0.00 1 1015.9
20260505013026 5 305 0.0 0.0 0.00 0.00 0.00 1 1015.9
20260505011543 5 305 0.0 0.0 0.00 0.00 0.00 1 1015.9
20260505010019 5 305 0.0 0.0 0.00 0.00 0.00 1 1015.9
20260505004513 5 305 0.0 0.0 0.00 0.00 0.00 1 1016.1
20260505003008 5 305 0.0 0.0 0.00 0.00 0.00 1 1016.2
20260505001508 5 305 0.0 0.0 0.00 0.00 0.00 1 1016.3
20260505000110 6 305 0.0 0.0 0.00 0.00 0.00 1 1016.6
20260504234558 6 305 0.0 0.0 0.00 0.00 0.00 1 1016.6
20260504233109 6 305 0.0 0.0 0.00 0.00 0.00 1 1016.8
20260504231546 6 305 0.0 0.0 0.00 0.00 0.00 1 1016.9
20260504230042 6 305 0.0 1.6 0.00 0.00 0.00 1 1016.9
20260504224542 6 305 0.0 0.0 0.00 0.00 0.00 1 1017.0
20260504223034 7 305 0.0 0.0 0.00 0.00 0.00 1 1016.9
20260504221529 7 305 0.0 0.0 0.00 0.00 0.00 1 1017.0
20260504220024 7 305 0.0 0.0 0.00 0.00 0.00 1 1016.9
20260504214521 8 305 0.0 0.0 0.00 0.00 0.00 1 1016.9
20260504213017 8 305 0.0 0.0 0.00 0.00 0.00 1 1016.9
20260504211512 8 305 0.0 0.0 0.00 0.00 0.00 1 1016.9
20260504210015 8 305 0.0 0.0 0.00 0.00 0.00 1 1016.9
20260504204508 9 305 0.0 0.0 0.00 0.00 0.00 5 1016.8
20260504203105 9 305 0.0 0.0 0.00 0.00 0.00 6 1016.8
20260504201556 10 305 0.0 0.0 0.00 0.00 0.00 9 1016.6
20260504200054 10 305 0.0 0.0 0.00 0.00 0.00 13 1016.6
20260504194551 11 305 0.0 0.0 0.00 0.00 0.00 20 1016.6
20260504193042 11 305 0.0 0.0 0.00 0.00 0.00 30 1016.3
20260504191544 12 305 0.0 0.0 0.00 0.00 0.00 35 1016.2
20260504190034 12 305 0.0 0.0 0.00 0.00 0.00 42 1016.0
20260504184529 12 309 0.0 0.0 0.00 0.00 0.00 43 1015.8
20260504183024 12 344 0.0 3.2 0.00 0.00 0.00 38 1015.7
20260504181520 13 309 0.0 0.0 0.00 0.00 0.00 29 1015.4
20260504180017 13 309 0.0 0.0 0.00 0.00 0.00 38 1015.1
20260504174512 14 309 0.0 0.0 0.00 0.00 0.00 43 1015.0
20260504173007 14 309 0.0 3.2 0.00 0.00 0.00 47 1015.0
20260504171502 14 300 0.0 0.0 0.00 0.00 0.00 47 1015.1
20260504081528 15 226 0.0 0.0 0.00 0.00 0.00 49 1017.1